Time,TemperatureF,DewpointF,PressureIn,WindDirection,WindDirectionDegrees,WindSpeedMPH,WindSpeedGustMPH,Humidity,HourlyPrecipIn,Conditions,Clouds,dailyrainin,SoftwareType,DateUTC
2013-03-15 00:03:00,13.0,3.0,-100.00,NNW,345,7.0,11.0,62,0.00,,,-99.99,,2013-03-15 04:03:00,
2013-03-15 00:12:00,13.0,3.0,-100.00,NNW,345,7.0,11.0,62,0.00,,,-99.99,,2013-03-15 04:12:00,
2013-03-15 00:23:00,13.0,3.0,-100.00,NNW,345,7.0,11.0,62,0.00,,,-99.99,,2013-03-15 04:23:00,
2013-03-15 00:33:00,13.0,4.0,-100.00,NNW,335,4.0,10.0,64,0.00,,,-99.99,,2013-03-15 04:33:00,
2013-03-15 00:43:00,13.0,4.0,-100.00,NNW,335,4.0,11.0,66,0.00,,,-99.99,,2013-03-15 04:43:00,
2013-03-15 00:53:00,13.0,4.0,-100.00,NW,325,6.0,9.0,66,0.00,,,-99.99,,2013-03-15 04:53:00,
2013-03-15 01:02:00,13.0,4.0,-100.00,WNW,295,2.0,7.0,67,0.00,,,-99.99,,2013-03-15 05:02:00,
2013-03-15 01:12:00,13.0,4.0,-100.00,NW,325,4.0,10.0,68,0.00,,,-99.99,,2013-03-15 05:12:00,
2013-03-15 01:22:00,13.0,5.0,-100.00,NNW,330,3.0,10.0,70,0.00,,,-99.99,,2013-03-15 05:22:00,
2013-03-15 01:32:00,13.0,5.0,-100.00,NW,315,5.0,9.0,70,0.00,,,-99.99,,2013-03-15 05:32:00,
2013-03-15 01:42:00,13.0,5.0,-100.00,NW,305,4.0,10.0,69,0.00,,,-99.99,,2013-03-15 05:42:00,
2013-03-15 01:52:00,13.0,4.0,-100.00,NNW,340,7.0,14.0,66,0.00,,,-99.99,,2013-03-15 05:52:00,
2013-03-15 02:02:00,13.0,4.0,-100.00,WNW,295,4.0,11.0,66,0.00,,,-99.99,,2013-03-15 06:02:00,
2013-03-15 02:12:00,13.0,3.0,-100.00,NNW,345,4.0,7.0,65,0.00,,,-99.99,,2013-03-15 06:12:00,
2013-03-15 02:22:00,13.0,2.0,-100.00,NNW,340,9.0,14.0,63,0.00,,,-99.99,,2013-03-15 06:22:00,
2013-03-15 02:32:00,12.0,3.0,-100.00,NNW,330,4.0,12.0,64,0.00,,,-99.99,,2013-03-15 06:32:00,
2013-03-15 02:42:00,12.0,3.0,-100.00,NNW,335,5.0,12.0,65,0.00,,,-99.99,,2013-03-15 06:42:00,
2013-03-15 02:52:00,12.0,3.0,-100.00,NW,305,6.0,12.0,65,0.00,,,-99.99,,2013-03-15 06:52:00,
2013-03-15 03:02:00,12.0,3.0,-100.00,NNW,340,5.0,13.0,65,0.00,,,-99.99,,2013-03-15 07:02:00,
2013-03-15 03:12:00,12.0,3.0,-100.00,WNW,295,3.0,12.0,66,0.00,,,-99.99,,2013-03-15 07:12:00,
2013-03-15 03:22:00,12.0,3.0,-100.00,NW,305,5.0,11.0,68,0.00,,,-99.99,,2013-03-15 07:22:00,
2013-03-15 03:32:00,12.0,4.0,-100.00,NW,325,7.0,10.0,69,0.00,,,-99.99,,2013-03-15 07:32:00,
2013-03-15 03:42:00,12.0,4.0,-100.00,NNW,340,4.0,8.0,69,0.00,,,-99.99,,2013-03-15 07:42:00,
2013-03-15 03:52:00,12.0,4.0,-100.00,NW,310,2.0,7.0,70,0.00,,,-99.99,,2013-03-15 07:52:00,
2013-03-15 04:02:00,12.0,4.0,-100.00,North,355,2.0,4.0,70,0.00,,,-99.99,,2013-03-15 08:02:00,
2013-03-15 04:12:00,12.0,4.0,-100.00,WNW,300,1.0,3.0,70,0.00,,,-99.99,,2013-03-15 08:12:00,
2013-03-15 04:23:00,11.0,3.0,-100.00,NNW,345,1.0,4.0,69,0.00,,,-99.99,,2013-03-15 08:23:00,
2013-03-15 04:33:00,11.0,3.0,-100.00,West,270,2.0,5.0,68,0.00,,,-99.99,,2013-03-15 08:33:00,
2013-03-15 04:42:00,12.0,3.0,-100.00,WNW,295,2.0,4.0,67,0.00,,,-99.99,,2013-03-15 08:42:00,
2013-03-15 04:52:00,11.0,2.0,-100.00,West,275,2.0,4.0,66,0.00,,,-99.99,,2013-03-15 08:52:00,
2013-03-15 05:02:00,12.0,3.0,-100.00,WNW,285,1.0,6.0,66,0.00,,,-99.99,,2013-03-15 09:02:00,
2013-03-15 05:12:00,12.0,2.0,-100.00,NW,305,2.0,7.0,64,0.00,,,-99.99,,2013-03-15 09:12:00,
2013-03-15 05:22:00,12.0,2.0,-100.00,NW,320,4.0,8.0,65,0.00,,,-99.99,,2013-03-15 09:22:00,
2013-03-15 05:33:00,12.0,2.0,-100.00,NW,315,2.0,8.0,65,0.00,,,-99.99,,2013-03-15 09:33:00,
2013-03-15 05:43:00,12.0,2.0,-100.00,NW,320,6.0,10.0,62,0.00,,,-99.99,,2013-03-15 09:43:00,
2013-03-15 05:52:00,12.0,2.0,-100.00,NNW,335,2.0,5.0,63,0.00,,,-99.99,,2013-03-15 09:52:00,
2013-03-15 06:03:00,12.0,2.0,-100.00,NW,305,3.0,6.0,62,0.00,,,-99.99,,2013-03-15 10:03:00,
2013-03-15 06:12:00,12.0,2.0,-100.00,NW,305,3.0,6.0,63,0.00,,,-99.99,,2013-03-15 10:12:00,
2013-03-15 06:23:00,12.0,1.0,-100.00,NW,325,2.0,6.0,62,0.00,,,-99.99,,2013-03-15 10:23:00,
2013-03-15 06:33:00,12.0,2.0,-100.00,South,170,1.0,4.0,62,0.00,,,-99.99,,2013-03-15 10:33:00,
2013-03-15 06:42:00,11.0,2.0,-100.00,WNW,300,2.0,4.0,64,0.00,,,-99.99,,2013-03-15 10:42:00,
2013-03-15 06:52:00,11.0,2.0,-100.00,WNW,300,2.0,4.0,65,0.00,,,-99.99,,2013-03-15 10:52:00,
2013-03-15 07:03:00,11.0,2.0,-100.00,East,80,1.0,3.0,64,0.00,,,-99.99,,2013-03-15 11:03:00,
2013-03-15 07:12:00,11.0,2.0,-100.00,NW,315,1.0,2.0,64,0.00,,,-99.99,,2013-03-15 11:12:00,
2013-03-15 07:22:00,11.0,2.0,-100.00,SW,235,1.0,1.0,66,0.00,,,-99.99,,2013-03-15 11:22:00,
2013-03-15 07:32:00,11.0,2.0,-100.00,SW,220,1.0,1.0,66,0.00,,,-99.99,,2013-03-15 11:32:00,
2013-03-15 07:42:00,11.0,2.0,-100.00,South,190,1.0,2.0,67,0.00,,,-99.99,,2013-03-15 11:42:00,
2013-03-15 07:52:00,11.0,3.0,-100.00,SSW,210,2.0,2.0,69,0.00,,,-99.99,,2013-03-15 11:52:00,
2013-03-15 08:02:00,12.0,3.0,-100.00,SSE,165,1.0,2.0,66,0.00,,,-99.99,,2013-03-15 12:02:00,
2013-03-15 08:12:00,13.0,4.0,-100.00,SSW,195,1.0,2.0,65,0.00,,,-99.99,,2013-03-15 12:12:00,
2013-03-15 08:23:00,14.0,3.0,-100.00,SW,225,1.0,2.0,59,0.00,,,-99.99,,2013-03-15 12:23:00,
2013-03-15 08:32:00,15.0,3.0,-100.00,SSE,165,0.0,3.0,59,0.00,,,-99.99,,2013-03-15 12:32:00,
2013-03-15 08:42:00,15.0,3.0,-100.00,SSE,155,1.0,2.0,57,0.00,,,-99.99,,2013-03-15 12:42:00,
2013-03-15 08:52:00,15.0,2.0,-100.00,SE,130,2.0,4.0,57,0.00,,,-99.99,,2013-03-15 12:52:00,
2013-03-15 09:02:00,14.0,2.0,-100.00,ESE,115,2.0,4.0,57,0.00,,,-99.99,,2013-03-15 13:02:00,
2013-03-15 09:12:00,16.0,2.0,-100.00,ESE,115,1.0,3.0,55,0.00,,,-99.99,,2013-03-15 13:12:00,
2013-03-15 09:22:00,15.0,3.0,-100.00,ESE,115,3.0,5.0,58,0.00,,,-99.99,,2013-03-15 13:22:00,
2013-03-15 09:32:00,16.0,3.0,-100.00,ESE,105,1.0,4.0,55,0.00,,,-99.99,,2013-03-15 13:32:00,
2013-03-15 09:42:00,17.0,3.0,-100.00,ENE,65,1.0,3.0,51,0.00,,,-99.99,,2013-03-15 13:42:00,
2013-03-15 09:52:00,18.0,4.0,-100.00,ESE,115,2.0,4.0,53,0.00,,,-99.99,,2013-03-15 13:52:00,
2013-03-15 10:02:00,17.0,3.0,-100.00,East,90,2.0,4.0,53,0.00,,,-99.99,,2013-03-15 14:02:00,
2013-03-15 10:12:00,17.0,3.0,-100.00,SSE,150,3.0,5.0,52,0.00,,,-99.99,,2013-03-15 14:12:00,
2013-03-15 10:22:00,21.0,4.0,-100.00,West,260,2.0,7.0,48,0.00,,,-99.99,,2013-03-15 14:22:00,
2013-03-15 10:32:00,20.0,4.0,-100.00,WSW,255,1.0,4.0,49,0.00,,,-99.99,,2013-03-15 14:32:00,
2013-03-15 10:42:00,20.0,4.0,-100.00,North,0,5.0,7.0,49,0.00,,,-99.99,,2013-03-15 14:42:00,
2013-03-15 10:52:00,19.0,3.0,-100.00,North,350,2.0,7.0,48,0.00,,,-99.99,,2013-03-15 14:52:00,
2013-03-15 11:02:00,20.0,4.0,-100.00,ESE,115,1.0,4.0,48,0.00,,,-99.99,,2013-03-15 15:02:00,
2013-03-15 11:13:00,21.0,4.0,-100.00,ESE,115,3.0,6.0,46,0.00,,,-99.99,,2013-03-15 15:13:00,
2013-03-15 11:23:00,21.0,4.0,-100.00,ESE,110,2.0,6.0,47,0.00,,,-99.99,,2013-03-15 15:23:00,
2013-03-15 11:33:00,21.0,3.0,-100.00,ESE,115,4.0,7.0,46,0.00,,,-99.99,,2013-03-15 15:33:00,
2013-03-15 11:42:00,21.0,3.0,-100.00,ESE,120,4.0,7.0,45,0.00,,,-99.99,,2013-03-15 15:42:00,
2013-03-15 11:52:00,23.0,3.0,-100.00,NE,40,1.0,6.0,42,0.00,,,-99.99,,2013-03-15 15:52:00,
2013-03-15 12:03:00,23.0,3.0,-100.00,NNW,340,4.0,7.0,41,0.00,,,-99.99,,2013-03-15 16:03:00,
2013-03-15 12:12:00,22.0,2.0,-100.00,East,100,4.0,6.0,42,0.00,,,-99.99,,2013-03-15 16:12:00,
2013-03-15 12:23:00,24.0,3.0,-100.00,East,85,3.0,6.0,39,0.00,,,-99.99,,2013-03-15 16:23:00,
2013-03-15 12:32:00,24.0,3.0,-100.00,SE,125,4.0,7.0,38,0.00,,,-99.99,,2013-03-15 16:32:00,
2013-03-15 12:42:00,25.0,3.0,-100.00,East,85,3.0,7.0,38,0.00,,,-99.99,,2013-03-15 16:42:00,
2013-03-15 12:52:00,24.0,3.0,-100.00,North,5,3.0,6.0,38,0.00,,,-99.99,,2013-03-15 16:52:00,
2013-03-15 13:02:00,25.0,2.0,-100.00,NNW,340,4.0,6.0,36,0.00,,,-99.99,,2013-03-15 17:02:00,
2013-03-15 13:12:00,26.0,2.0,-100.00,ENE,60,3.0,5.0,35,0.00,,,-99.99,,2013-03-15 17:12:00,
2013-03-15 13:22:00,27.0,4.0,-100.00,ESE,120,4.0,7.0,37,0.00,,,-99.99,,2013-03-15 17:22:00,
2013-03-15 13:32:00,28.0,5.0,-100.00,WNW,290,4.0,7.0,37,0.00,,,-99.99,,2013-03-15 17:32:00,
2013-03-15 13:42:00,26.0,3.0,-100.00,NW,310,3.0,10.0,35,0.00,,,-99.99,,2013-03-15 17:42:00,
2013-03-15 13:52:00,28.0,4.0,-100.00,North,0,1.0,6.0,34,0.00,,,-99.99,,2013-03-15 17:52:00,
2013-03-15 14:02:00,28.0,4.0,-100.00,SE,140,1.0,4.0,34,0.00,,,-99.99,,2013-03-15 18:02:00,
2013-03-15 14:12:00,27.0,3.0,-100.00,ESE,105,2.0,4.0,34,0.00,,,-99.99,,2013-03-15 18:12:00,
2013-03-15 14:22:00,28.0,4.0,-100.00,South,175,1.0,7.0,34,0.00,,,-99.99,,2013-03-15 18:22:00,
2013-03-15 14:32:00,31.0,7.0,-100.00,West,270,2.0,10.0,36,0.00,,,-99.99,,2013-03-15 18:32:00,
2013-03-15 14:42:00,30.0,7.0,-100.00,SW,215,2.0,7.0,36,0.00,,,-99.99,,2013-03-15 18:42:00,
2013-03-15 14:52:00,31.0,6.0,-100.00,SW,220,4.0,8.0,35,0.00,,,-99.99,,2013-03-15 18:52:00,
2013-03-15 15:02:00,31.0,10.0,-100.00,West,265,2.0,9.0,40,0.00,,,-99.99,,2013-03-15 19:02:00,
2013-03-15 15:12:00,31.0,9.0,-100.00,South,175,1.0,8.0,39,0.00,,,-99.99,,2013-03-15 19:12:00,
2013-03-15 15:22:00,30.0,9.0,-100.00,WNW,285,1.0,7.0,40,0.00,,,-99.99,,2013-03-15 19:22:00,
2013-03-15 15:32:00,30.0,8.0,-100.00,NE,40,2.0,11.0,38,0.00,,,-99.99,,2013-03-15 19:32:00,
2013-03-15 15:42:00,31.0,8.0,-100.00,SSW,200,1.0,8.0,38,0.00,,,-99.99,,2013-03-15 19:42:00,
2013-03-15 15:52:00,31.0,8.0,-100.00,SE,140,4.0,7.0,37,0.00,,,-99.99,,2013-03-15 19:52:00,
2013-03-15 16:02:00,32.0,9.0,-100.00,South,175,0.0,4.0,37,0.00,,,-99.99,,2013-03-15 20:02:00,
2013-03-15 16:12:00,32.0,8.0,-100.00,SSW,210,1.0,6.0,36,0.00,,,-99.99,,2013-03-15 20:12:00,
2013-03-15 16:22:00,32.0,8.0,-100.00,WNW,285,2.0,6.0,35,0.00,,,-99.99,,2013-03-15 20:22:00,
2013-03-15 16:32:00,32.0,10.0,-100.00,SW,215,5.0,10.0,39,0.00,,,-99.99,,2013-03-15 20:32:00,
2013-03-15 16:42:00,31.0,13.0,-100.00,SSW,205,2.0,9.0,45,0.00,,,-99.99,,2013-03-15 20:42:00,
2013-03-15 16:52:00,31.0,13.0,-100.00,SSW,210,3.0,9.0,47,0.00,,,-99.99,,2013-03-15 20:52:00,
2013-03-15 17:02:00,31.0,14.0,-100.00,West,265,4.0,7.0,49,0.00,,,-99.99,,2013-03-15 21:02:00,
2013-03-15 17:12:00,30.0,16.0,-100.00,WNW,290,6.0,12.0,54,0.00,,,-99.99,,2013-03-15 21:12:00,
2013-03-15 17:22:00,29.0,16.0,-100.00,WSW,245,3.0,9.0,56,0.00,,,-99.99,,2013-03-15 21:22:00,
2013-03-15 17:33:00,30.0,18.0,-100.00,WSW,250,1.0,6.0,60,0.00,,,-99.99,,2013-03-15 21:33:00,
2013-03-15 17:43:00,29.0,18.0,-100.00,WNW,285,2.0,6.0,62,0.00,,,-99.99,,2013-03-15 21:43:00,
2013-03-15 17:52:00,29.0,18.0,-100.00,NW,305,3.0,6.0,63,0.00,,,-99.99,,2013-03-15 21:52:00,
2013-03-15 18:03:00,29.0,19.0,-100.00,West,260,1.0,7.0,65,0.00,,,-99.99,,2013-03-15 22:03:00,
2013-03-15 18:13:00,28.0,21.0,-100.00,WSW,255,1.0,7.0,75,0.04,,,-99.99,,2013-03-15 22:13:00,
2013-03-15 18:22:00,28.0,22.0,-100.00,West,280,1.0,6.0,77,0.06,,,-99.99,,2013-03-15 22:22:00,
2013-03-15 18:32:00,28.0,22.0,-100.00,SW,235,1.0,3.0,79,0.01,,,-99.99,,2013-03-15 22:32:00,
2013-03-15 18:42:00,27.0,22.0,-100.00,SSW,200,2.0,4.0,80,0.04,,,-99.99,,2013-03-15 22:42:00,
2013-03-15 18:52:00,27.0,23.0,-100.00,WSW,240,2.0,4.0,82,0.08,,,-99.99,,2013-03-15 22:52:00,
2013-03-15 19:02:00,27.0,23.0,-100.00,SW,230,1.0,2.0,84,0.04,,,-99.99,,2013-03-15 23:02:00,
2013-03-15 19:12:00,27.0,23.0,-100.00,SE,130,1.0,2.0,85,0.01,,,-99.99,,2013-03-15 23:12:00,
2013-03-15 19:22:00,27.0,23.0,-100.00,East,95,0.0,3.0,86,0.00,,,-99.99,,2013-03-15 23:22:00,
2013-03-15 19:32:00,27.0,23.0,-100.00,North,5,1.0,4.0,86,0.00,,,-99.99,,2013-03-15 23:32:00,
2013-03-15 19:42:00,27.0,23.0,-100.00,ESE,105,1.0,2.0,86,0.00,,,-99.99,,2013-03-15 23:42:00,
2013-03-15 19:52:00,27.0,23.0,-100.00,WSW,250,0.0,1.0,86,0.00,,,-99.99,,2013-03-15 23:52:00,
2013-03-15 20:02:00,27.0,23.0,-100.00,NNE,20,1.0,1.0,86,0.00,,,-99.99,,2013-03-16 00:02:00,
2013-03-15 20:12:00,27.0,23.0,-100.00,ESE,105,1.0,2.0,85,0.00,,,-99.99,,2013-03-16 00:12:00,
2013-03-15 20:22:00,27.0,23.0,-100.00,NNE,15,0.0,1.0,85,0.00,,,-99.99,,2013-03-16 00:22:00,
2013-03-15 20:32:00,27.0,23.0,-100.00,North,10,1.0,2.0,86,0.00,,,-99.99,,2013-03-16 00:32:00,
2013-03-15 20:42:00,27.0,23.0,-100.00,NNW,330,1.0,2.0,86,0.00,,,-99.99,,2013-03-16 00:42:00,
2013-03-15 20:52:00,27.0,23.0,-100.00,WNW,290,1.0,2.0,86,0.03,,,-99.99,,2013-03-16 00:52:00,
2013-03-15 21:03:00,27.0,23.0,-100.00,WSW,255,0.0,2.0,86,0.01,,,-99.99,,2013-03-16 01:03:00,
2013-03-15 21:12:00,27.0,23.0,-100.00,East,90,1.0,2.0,86,0.00,,,-99.99,,2013-03-16 01:12:00,
2013-03-15 21:22:00,27.0,23.0,-100.00,NW,305,3.0,4.0,85,0.00,,,-99.99,,2013-03-16 01:22:00,
2013-03-15 21:32:00,27.0,23.0,-100.00,West,265,2.0,5.0,85,0.00,,,-99.99,,2013-03-16 01:32:00,
2013-03-15 21:42:00,27.0,23.0,-100.00,West,270,2.0,9.0,84,0.03,,,-99.99,,2013-03-16 01:42:00,
2013-03-15 21:52:00,27.0,23.0,-100.00,NNW,340,4.0,12.0,86,0.08,,,-99.99,,2013-03-16 01:52:00,
2013-03-15 22:02:00,26.0,23.0,-100.00,West,265,2.0,11.0,87,0.13,,,-99.99,,2013-03-16 02:02:00,
2013-03-15 22:12:00,25.0,22.0,-100.00,WNW,295,2.0,6.0,87,0.00,,,-99.99,,2013-03-16 02:12:00,
2013-03-15 22:23:00,25.0,21.0,-100.00,NW,310,4.0,9.0,83,0.00,,,-99.99,,2013-03-16 02:23:00,
2013-03-15 22:33:00,26.0,20.0,-100.00,NNW,340,1.0,9.0,77,0.00,,,-99.99,,2013-03-16 02:33:00,
2013-03-15 22:42:00,26.0,18.0,-100.00,NNW,330,6.0,13.0,73,0.00,,,-99.99,,2013-03-16 02:42:00,
2013-03-15 22:52:00,26.0,18.0,-100.00,NW,315,4.0,12.0,72,0.00,,,-99.99,,2013-03-16 02:52:00,
2013-03-15 23:02:00,25.0,18.0,-100.00,NW,315,3.0,9.0,75,0.00,,,-99.99,,2013-03-16 03:02:00,
2013-03-15 23:12:00,25.0,18.0,-100.00,NNW,330,7.0,14.0,73,0.00,,,-99.99,,2013-03-16 03:12:00,
2013-03-15 23:22:00,25.0,18.0,-100.00,WNW,295,4.0,12.0,73,0.00,,,-99.99,,2013-03-16 03:22:00,
2013-03-15 23:32:00,25.0,17.0,-100.00,NW,320,4.0,9.0,73,0.00,,,-99.99,,2013-03-16 03:32:00,
2013-03-15 23:43:00,24.0,17.0,-100.00,WNW,300,4.0,9.0,73,0.00,,,-99.99,,2013-03-16 03:43:00,
2013-03-15 23:52:00,24.0,17.0,-100.00,West,275,3.0,9.0,73,0.00,,,-99.99,,2013-03-16 03:52:00,